This demonstration page uses our WeatherBlox Daily Observations layout. Learn more.

38.88101, -77.10428

Hourly Observations for October 7, 2017

Temp ( °F °C ) Dew Point ( °F °C ) Humidity (%) Winds ( mph kmh ) Pressure ( in mb ) Visibility ( mi km ) Precip ( " mm )
12:52 am 00:52 Mostly Cloudy 70 21.1 64 17.8 82 82 S 8 13 30.09 1019 10 16.0934 0 0
1:52 am 01:52 Partly Cloudy 69 20.6 64 17.8 84 84 S 7 11 30.09 1019 10 16.0934 0 0
2:52 am 02:52 Partly Cloudy 69 20.6 64 17.8 84 84 S 7 11 30.08 1019 10 16.0934 0 0
3:52 am 03:52 Mostly Clear 68 20 63 17.2 84 84 S 7 11 30.07 1018 10 16.0934 0 0
4:52 am 04:52 Partly Cloudy 68 20 63 17.2 84 84 S 9 15 30.08 1019 10 16.0934 0 0
5:52 am 05:52 Mostly Cloudy 67 19.4 63 17.2 87 87 SSW 6 9 30.08 1019 10 16.0934 0 0
6:52 am 06:52 Mostly Cloudy 65 18.3 62 16.7 90 90 SW 5 7 30.09 1019 10 16.0934 0 0
7:52 am 07:52 Mostly Cloudy 67 19.4 63 17.2 87 87 SSW 7 11 30.09 1019 10 16.0934 0 0
8:52 am 08:52 Partly Cloudy 70 21.1 65 18.3 84 84 S 7 11 30.11 1020 10 16.0934 0 0
9:52 am 09:52 Partly Cloudy 72 22.2 65 18.3 79 79 S 9 15 30.11 1020 10 16.0934 0 0
10:52 am 10:52 Partly Cloudy 76 24.4 66 18.9 72 72 S 10 17 30.11 1020 10 16.0934 0 0
11:52 am 11:52 Partly Cloudy 80 26.7 66 18.9 62 62 S 13 20 30.09 1019 10 16.0934 0 0
12:52 pm 12:52 Partly Cloudy 82 27.8 67 19.4 60 60 S 12 19 30.08 1019 10 16.0934 0 0
1:52 pm 13:52 Partly Cloudy 82 27.8 66 18.9 58 58 S 13 20 30.06 1018 10 16.0934 0 0
2:52 pm 14:52 Partly Cloudy 83 28.3 66 18.9 57 57 S 15 24 30.04 1017 10 16.0934 0 0
3:52 pm 15:52 Partly Cloudy 84 28.9 68 20 59 59 S 15 24 30.02 1017 10 16.0934 0 0
4:52 pm 16:52 Partly Cloudy 82 27.8 70 21.1 67 67 S 13 20 30.01 1016 10 16.0934 0 0
5:52 pm 17:52 Partly Cloudy 81 27.2 72 22.2 74 74 S 12 19 30 1016 10 16.0934 0 0
6:52 pm 18:52 Mostly Cloudy 80 26.7 71 21.7 74 74 SSE 12 19 30.01 1016 10 16.0934 0 0
7:52 pm 19:52 Partly Cloudy 78 25.6 72 22.2 82 82 S 12 19 30.01 1016 10 16.0934 0 0
8:52 pm 20:52 Mostly Clear 77 25 72 22.2 85 85 S 10 17 30.02 1017 10 16.0934 0 0
9:52 pm 21:52 Mostly Clear 76 24.4 72 22.2 88 88 S 10 17 30.01 1016 10 16.0934 0 0
10:52 pm 22:52 Partly Cloudy 76 24.4 72 22.2 88 88 S 10 17 30 1016 10 16.0934 0 0
11:17 pm 23:17 Cloudy 75 23.9 72 22.2 90 90 S 8 13 30 1016 10 16.0934 0 0
11:52 pm 23:52 Cloudy with Light Rain 76 24.4 73 22.8 91 91 S 13 20 29.99 1016 8 12.87472 0 0.0254

Powered by AerisWeather